Location: Gälforsberget
(66.6500°N, 22.4167°E)
Time: 06:12:08
(UTC+00:00)

SL-16 R/B - Pass Details

Date: 11 April 2026
Orbit: 839 x 849 km, 71.0° (Epoch: 10 May)

Event Time Altitude Azimuth Distance (km) Brightness Sun altitude
Exits shadow 20:16:06 13° 128° (SE) 2,264 3.8 -10.9°
Maximum altitude 20:18:31 17° 100° (E) 2,043 3.8 -11.0°
Drops below altitude 10° 20:21:56 10° 62° (ENE) 2,479 4.6 -11.2°
Sets 20:25:15 0° 43° (NE) 3,421 5.6 -11.4°
